Content
SEND FEEDBACK

Daily
Averages
Monthly
Summary
Netherlands Antilles

KRALENDIJK, NETHERLANDS ANTILLES


Home > Caribbean > Netherlands Antilles
Elevation: 0 feet     Latitude: 12 09N     Longitude: 068 16W

WEATHER
 
SELECT A DAY
Number of Records: 94,234;   Date Range: 6/30/96 - 10/18/14
 
SHARE

PRINT THIS DATA

[ ← Previous Day ]
WEATHER ALMANAC - JANUARY 31, 2013
[ Next Day → ]
[ °C ]   °F
Weather ElementAverageHighLow
Temperature81.3 °F84.2 °F (11:00 am)78.8 °F (5:00 am)
Dewpoint71.9 °F73.4 °F (9:00 am)71 °F (8:00 pm)
Humidity71.8 %78 % (5:00 am)61 % (11:00 am)
Barometer29.95 in30.02 in (11:00 am)29.89 in (4:00 pm)
Wind Speed16.9 mph21.9 mph (10:00 am)
Weather ElementAverage
Visibility10 mi
Wind DirectionE (90.8 °)

Weather ElementTotal
Precipitation---
Cooling Degree Days16.5 (Base 65)
Growing Degree Days31.5 (Base 50)
Averaged from 25 records on January 31, 2013
WEATHER CONDITIONS BREAKOUT
WIND DIRECTION BREAKOUT
WEATHER BY HOUR - JANUARY 31, 2013
[ °C ]   °F
Local TimeTemperatureDewpointHumidityBarometerVisibilityWind DirectionWind SpeedGust SpeedPrecipitationEventsConditions
5:00 AM78.8 °F71.6 °F78 %29.95 inEast (90°)11.5 mph
6:00 AM78.8 °F71.6 °F78 %29.95 inEast (90°)11.5 mph
7:00 AM78.8 °F71.6 °F78 %29.95 inEast (90°)11.5 mph
8:00 AM80.0 °F72.0 °F70 %29.99 in22.0 miEast (100°)18.4 mphPartly Cloudy
8:00 AM80.6 °F71.6 °F74 %29.98 in6.2 miEast (90°)15.0 mphScattered Clouds
9:00 AM82.4 °F73.4 °F74 %29.98 in6.2 miEast (100°)16.1 mphScattered Clouds
10:00 AM82.4 °F71.6 °F70 %30.01 in6.2 miEast (100°)21.9 mphScattered Clouds
11:00 AM84.0 °F72.0 °F61 %30.02 in22.0 miEast (100°)19.6 mphMostly Cloudy
11:00 AM84.2 °F73.4 °F70 %30.01 in6.2 miEast (100°)19.6 mphMostly Cloudy
12:00 PM84.2 °F73.4 °F70 %29.98 inEast (100°)19.6 mph
1:00 PM82.4 °F71.6 °F70 %29.98 in6.2 miENE (70°)18.4 mphMostly Cloudy
2:00 PM84.2 °F73.4 °F70 %29.95 in6.2 miEast (80°)18.4 mphScattered Clouds
2:00 PM84.0 °F72.0 °F61 %29.96 in22.0 miEast (90°)18.4 mphPartly Cloudy
3:00 PM84.2 °F71.6 °F66 %29.92 in6.2 miEast (90°)18.4 mphScattered Clouds
4:00 PM84.2 °F71.6 °F66 %29.89 in6.2 miEast (90°)19.6 mphScattered Clouds
5:00 PM82.0 °F72.0 °F63 %29.91 in22.0 miEast (100°)20.7 mphPartly Cloudy
5:00 PM82.4 °F71.6 °F70 %29.89 in6.2 miEast (90°)21.9 mphScattered Clouds
6:00 PM80.6 °F71.6 °F74 %29.89 in6.2 miEast (80°)18.4 mphScattered Clouds
7:00 PM80.6 °F71.6 °F74 %29.92 in6.2 miEast (90°)16.1 mphScattered Clouds
8:00 PM79.0 °F71.0 °F71 %29.94 in19.0 miEast (100°)16.1 mphPartly Cloudy
8:00 PM78.8 °F71.6 °F78 %29.92 in6.2 miEast (90°)17.3 mphScattered Clouds
9:00 PM78.8 °F71.6 °F78 %29.95 in6.2 miEast (80°)13.8 mphScattered Clouds
10:00 PM78.8 °F71.6 °F78 %29.95 in6.2 miEast (80°)13.8 mphScattered Clouds
11:00 PM79.0 °F72.0 °F75 %6.0 miEast (90°)12.7 mphClear
11:00 PM78.8 °F71.6 °F78 %29.95 inEast (90°)12.7 mph
Hourly data recorded from TNCB, located miles away from Kralendijk, Netherlands Antilles







STORIES FROM OUR PARTNERS